Location: Unspecified
(43.4354°N, 0.0000°E)
Time: 10:32:34
(UTC+00:00)

A-11 Canister half - Pass Details

Date: 23 June 2019
Orbit: 1514 x 1686 km, 47.2° (Epoch: 16 October)

Event Time Altitude Azimuth Distance (km) Brightness Sun altitude
Rises 11:04:38 0° 244° (WSW) 4,908 11.6 66.7°
Reaches altitude 10° 11:07:48 10° 245° (WSW) 3,906 11.2 67.1°
Maximum altitude 11:17:50 89° 158° (SSE) 1,626 10.9 68.0°
Drops below altitude 10° 11:27:32 10° 69° (ENE) 3,780 11.2 68.8°
Sets 11:30:33 0° 70° (ENE) 4,744 11.6 69.0°
